Terug naar catalogus

TITAN 3C TRANSTAGE DEB

ActiefMEO
NORAD 43284·DEBRIS·🇺🇸 United States

Gelanceerd Feb 9, 1969 vanaf Cape Canaveral Space Force Station

Loading…

Volgende Passages (komende 24 uur)

TLE

VersSource: Space-Track

Epoch: Sep 13, 2026, 16:56 UTC

1 43284U 69013E   26256.70562072 -.00000215  00000-0  00000-0 0  9999
2 43284   1.5660  76.3072 0139542  47.6370 314.4579  0.97232727 30158

Volg TITAN 3C TRANSTAGE DEB in realtime met AllMySat

Download on the App Store